Regional Weather Roundup
Issued by NWS

Home | Current Version | Previous Version | Text Only | Print | Product List | Glossary Off
Versions: 1 2 3 4 5 6 7 8 9 10 11 12 13 14 15 16 17 18 19 20 21 22 23 24 25 26 27 28 29 30 31 32 33 34 35 36 37 38 39 40 41 42 43 44 45 46 47 48 49 50

947
ASUS43 KLMK 181610
RWRKY
NATIONAL WEATHER SERVICE LOUISVILLE KY
1100 AM EST SAT NOV 18 2017

NOTE "FAIR" INDICATES FEW OR NO CLOUDS BELOW 12,000 FEET
WITH NO SIGNIFICANT WEATHER AND/OR OBSTRUCTIONS TO VISIBILITY.

KYZ001>023-026-027-061>063-070>075-181700-
WESTERN AND SOUTH CENTRAL KENTUCKY

CITY           SKY/WX    TMP DP  RH WIND       PRES   REMARKS
PADUCAH        LGT RAIN  65  60  84 S8        29.53F
HENDERSON      CLOUDY    65  60  84 S22G32    29.49F
OWENSBORO      CLOUDY    64  60  87 S22G30    29.51F
HOPKINSVILLE   CLOUDY    65  60  84 S15       29.61F
BOWLING GREEN  LGT RAIN  61  59  93 S16       29.66F FOG
GLASGOW        CLOUDY    62  56  79 S14G25    29.66F
$$

KYZ024-025-028>034-038-045-046-053-181700-
NORTH CENTRAL KENTUCKY

CITY           SKY/WX    TMP DP  RH WIND       PRES   REMARKS
LOUISVILLE/SDF CLOUDY    66  56  70 S26G37    29.54F
LOUISVILLE/LOU CLOUDY    65  58  78 S23G39    29.54F
FORT KNOX      CLOUDY    63  56  78 S21G33    29.55F
$$

KYZ035>037-039>044-047>052-055>060-089>105-181700-
NORTHEAST KENTUCKY

CITY           SKY/WX    TMP DP  RH WIND       PRES   REMARKS
LEXINGTON      CLOUDY    63  53  70 S25G37    29.59F
COVINGTON      CLOUDY    61  55  81 S22G37    29.46F
FRANKFORT      CLOUDY    63  52  67 S23G38    29.57F
$$

KYZ054-064>069-076>088-106>120-181700-
SOUTHEAST KENTUCKY

CITY           SKY/WX    TMP DP  RH WIND       PRES   REMARKS
JACKSON        CLOUDY    61  44  53 VRB7      29.70F
LONDON         CLOUDY    65  48  54 S18G33    29.71F
SOMERSET       CLOUDY    61  48  63 SW12G28   29.72F
MIDDLESBORO    CLOUDY    59  45  58 SW10G28   29.80F
MONTICELLO     CLOUDY    63  52  67 S9G24     29.72F
$$





USA.gov is the U.S. government's official web portal to all federal, state and local government web resources and services.